Wind_Gust
33 32 31 31 28 29 28 27 27 26 25 26 25 25 22 20 21 19 19 19 20 18 18 18 16 15 15 15 15 15 15 14 14 15 14 13 12 12 12 12 13 13 14 14 14 16 18 17 16 16 16 16 16 17 19 20 20 22 23 21 20 16 16 16 20 21 16 14 17 18 20 19 20 18 18 17 17 15 9 12 16 16 16 16 16
32 32 31 32 29 29 27 26 28 27 26 27 25 25 22 24 21 21 20 20 21 21 18 18 16 15 15 15 15 15 16 16 16 15 15 14 13 12 13 11 11 13 12 14 14 15 16 18 18 17 17 18 17 20 21 21 21 22 21 21 19 18 14 17 19 23 21 17 19 17 20 20 19 19 19 17 17 16 16 14 15 15 13 15 19
32 31 29 29 27 26 27 27 27 27 27 27 26 26 24 23 23 22 22 21 20 19 18 19 17 17 16 15 15 15 16 16 15 14 14 14 15 13 13 12 12 13 13 14 16 16 17 17 18 17 16 16 16 16 16 18 19 20 19 18 18 15 14 15 23 19 22 21 19 20 20 21 18 20 19 18 17 16 17 16 16 14 12 11 13
30 30 29 29 27 26 28 27 27 28 28 27 27 26 26 24 24 23 22 21 22 18 18 20 16 16 16 16 16 16 16 15 15 14 14 14 15 15 13 11 12 12 12 13 14 13 12 13 13 13 13 14 15 14 15 16 17 18 17 16 15 15 14 13 14 21 22 23 21 21 20 19 18 19 15 16 17 15 14 12 9 12 13 13 11
30 30 29 30 28 29 28 28 28 29 28 27 28 27 25 23 22 23 22 22 22 20 19 17 17 17 17 18 18 17 16 16 15 14 13 13 14 15 13 13 12 11 10 11 10 12 11 10 12 11 12 14 14 14 15 15 17 16 17 17 17 16 15 15 15 18 22 22 22 19 18 19 18 17 18 19 18 16 13 13 14 14 14 14 14
30 30 30 30 30 28 29 28 29 29 28 27 28 28 26 23 22 21 23 25 23 22 20 18 18 18 19 18 17 17 16 16 15 15 15 14 13 13 13 12 12 10 10 10 10 10 10 11 11 12 13 14 15 14 15 17 15 16 17 17 17 16 16 15 15 17 18 20 20 21 18 20 19 16 19 18 18 19 17 16 13 13 14 15 14
30 31 30 29 29 29 29 29 30 28 28 29 27 27 26 24 23 23 23 26 25 22 20 19 18 19 20 18 17 17 17 16 15 15 15 15 14 14 14 13 13 11 9 10 11 10 11 11 12 12 13 14 15 16 17 16 16 16 16 16 17 17 17 16 17 18 18 20 19 18 19 18 17 18 19 18 17 17 18 17 17 16 15 16 16
31 31 30 29 29 30 31 28 28 29 28 28 29 27 27 26 24 23 23 24 23 21 21 20 21 20 19 18 18 17 16 16 15 15 15 15 15 14 15 14 12 11 10 11 11 11 11 11 11 12 12 13 15 16 17 18 16 16 16 16 17 18 17 17 18 19 19 19 19 20 19 19 19 16 17 17 18 19 18 17 17 17 16 15 14
32 32 31 32 29 29 27 27 27 28 30 29 28 28 28 27 26 24 23 23 22 21 20 22 23 21 20 19 19 17 16 15 15 16 16 15 15 15 15 15 15 14 13 12 11 11 11 10 9 10 12 11 10 10 11 14 20 19 16 17 17 18 17 18 18 19 19 19 19 18 19 19 20 19 20 21 21 19 18 15 15 15 16 16 14
31 31 32 30 28 29 29 29 29 30 30 29 29 28 28 28 27 25 24 24 23 20 21 22 22 22 22 21 19 18 16 14 12 14 12 16 16 14 14 14 15 14 14 13 12 12 11 10 14 14 12 12 11 11 12 12 13 19 21 19 18 18 18 18 19 19 19 19 19 20 20 20 20 19 19 18 17 16 15 17 16 15 14 15 14
32 32 31 29 30 29 29 30 31 31 30 29 28 29 29 27 25 24 25 24 23 21 21 24 23 21 21 21 20 18 17 14 14 14 14 14 14 15 15 14 14 14 14 14 14 13 11 11 13 13 13 11 14 13 12 13 15 17 16 16 16 22 19 18 18 18 19 18 19 19 19 18 18 19 18 19 17 16 16 18 17 16 17 17 17
34 32 31 30 31 31 29 31 31 31 30 30 30 29 29 27 26 25 25 24 23 21 21 23 23 22 22 21 20 18 16 12 16 15 15 16 12 16 15 15 14 14 14 15 15 14 13 12 11 12 13 15 16 16 13 15 17 16 15 15 17 17 19 25 22 19 17 18 18 18 17 18 19 19 19 18 18 16 15 17 16 17 16 17 14
33 33 30 31 32 30 29 31 32 31 31 31 30 30 29 26 26 26 26 24 23 24 22 25 24 22 22 22 20 19 16 14 16 16 16 15 15 13 15 14 15 14 14 15 15 15 14 14 13 11 14 15 16 16 16 15 11 13 12 11 11 11 9 11 12 19 18 17 18 17 17 18 19 19 17 18 16 16 16 17 15 15 15 13 12
34 33 30 31 31 29 30 31 32 32 31 30 29 30 30 27 25 25 26 25 27 26 22 25 23 23 23 22 21 19 16 15 17 17 16 16 15 12 14 15 14 15 15 15 15 15 15 15 15 14 14 16 14 16 16 17 17 16 15 14 14 11 8 11 11 11 11 16 18 19 16 16 18 17 17 16 18 17 18 15 15 14 13 12 10
32 31 29 30 30 30 31 31 32 32 31 30 30 29 29 27 26 24 26 27 28 28 25 26 25 21 23 22 21 19 17 17 17 17 16 16 15 10 13 14 14 14 14 14 15 15 15 15 14 16 17 16 16 16 18 18 18 16 15 14 14 14 13 14 14 15 13 11 15 16 17 15 15 17 17 17 15 14 14 13 14 13 11 12 12
33 29 30 29 32 31 31 31 32 31 31 30 31 30 28 28 27 23 24 25 26 26 26 26 25 24 21 19 20 20 17 18 17 17 18 16 15 16 15 15 14 15 14 14 14 14 15 15 16 16 16 16 12 13 15 19 18 18 17 15 14 13 13 11 12 14 16 15 14 16 18 16 10 15 16 16 15 11 10 10 11 12 15 16 16
28 28 31 32 30 31 31 33 33 32 32 31 30 30 29 28 26 25 26 27 26 26 27 26 25 22 21 20 20 19 18 17 16 18 18 18 14 17 15 16 15 14 14 13 14 12 12 15 16 16 16 15 14 13 14 15 18 19 18 16 14 14 13 11 11 11 11 12 15 16 16 13 12 12 10 11 11 11 16 16 16 17 17 17 15
32 33 33 30 30 31 32 33 33 31 32 31 30 30 29 26 25 26 27 27 27 27 27 27 25 24 22 22 22 20 20 18 18 18 19 19 16 18 17 17 15 15 14 13 12 13 11 13 11 13 15 14 14 13 13 16 17 18 18 17 16 16 14 13 13 11 8 10 13 13 12 10 9 9 8 8 10 8 15 17 15 16 15 13 13
32 33 31 31 30 31 31 32 31 31 30 30 30 31 29 26 25 26 26 27 28 28 26 27 27 28 23 21 13 20 21 19 17 18 19 20 19 17 18 18 18 17 16 16 14 13 13 9 8 11 12 14 16 14 14 15 16 17 17 17 18 18 18 17 17 17 15 15 14 13 12 9 12 14 12 10 11 9 15 14 11 15 14 11 10
35 31 30 29 30 30 31 31 30 31 30 28 30 30 27 24 26 27 25 26 27 28 28 27 27 26 22 21 22 20 21 21 22 19 19 20 18 18 18 17 18 18 16 17 16 14 13 14 12 10 10 15 16 15 16 13 14 16 18 19 18 19 18 18 17 18 18 18 17 17 17 17 16 15 15 14 13 15 14 13 12 11 10 10 11
30 29 30 29 29 30 31 31 31 28 29 30 29 27 27 27 26 24 26 26 26 27 29 21 20 19 18 18 20 19 20 22 23 20 20 19 19 15 17 16 16 17 16 16 16 16 16 16 14 14 15 16 15 15 14 13 7 13 17 18 16 15 15 17 16 6 16 16 15 16 16 16 16 17 16 17 17 16 15 13 12 11 11 11 11
29 30 30 30 31 31 30 30 27 27 29 29 29 29 28 26 25 24 25 26 26 26 24 18 17 16 15 15 16 17 16 15 23 20 19 19 17 15 15 14 17 17 15 15 15 14 15 15 14 15 14 14 15 14 12 11 9 13 12 8 17 18 20 16 17 18 17 17 16 16 17 16 18 18 17 16 17 17 16 14 12 11 10 10 12
31 29 29 29 30 30 30 28 25 26 24 26 28 29 27 25 24 24 25 25 25 25 21 20 19 18 16 15 16 17 18 17 16 21 18 18 18 16 14 14 13 17 17 17 16 16 14 14 14 16 14 15 15 14 12 11 9 12 12 12 15 17 15 18 17 20 18 18 16 16 16 16 17 16 17 15 15 15 15 14 13 12 10 9 8
32 31 26 27 30 30 29 28 26 24 26 26 28 30 27 25 25 25 25 26 26 26 20 21 20 20 19 18 16 16 17 18 13 16 19 17 16 16 16 17 18 15 14 14 14 14 14 14 14 15 13 14 14 14 12 10 15 11 11 13 13 11 19 18 18 19 17 16 17 19 19 17 16 16 14 12 11 13 14 13 12 12 11 9 8
31 30 28 27 29 30 29 29 28 26 26 28 29 30 27 26 26 25 26 24 24 24 23 22 22 20 18 18 17 17 18 19 18 15 13 15 16 15 17 19 18 14 15 12 11 14 14 16 17 14 13 13 12 11 9 10 12 12 11 13 11 18 19 21 20 19 19 19 19 16 16 16 16 14 12 11 12 12 13 12 13 12 10 9 8
27 28 26 26 27 29 28 26 27 27 26 27 26 27 28 28 26 25 21 24 26 26 22 22 20 19 18 17 18 17 18 18 18 18 12 11 11 13 14 16 17 17 15 14 13 14 12 13 14 14 11 12 17 16 17 17 9 9 11 12 16 17 18 21 22 23 21 21 18 18 17 15 16 14 10 13 14 15 14 15 14 14 13 12 12
24 26 25 25 23 24 26 27 26 27 25 24 24 24 26 26 23 23 24 27 28 29 27 23 22 21 19 19 18 18 19 19 19 19 20 19 16 13 12 12 10 10 12 13 10 14 17 14 14 10 9 12 6 6 7 15 17 15 16 17 19 20 19 19 20 21 19 19 18 19 19 18 16 17 17 15 15 14 15 15 15 15 15 14 14
26 24 25 23 22 24 23 17 23 27 25 25 24 23 24 23 23 24 23 24 26 24 22 23 23 23 22 20 19 17 16 15 18 20 20 19 18 18 17 15 16 17 17 15 15 14 17 10 14 17 18 18 17 18 18 18 18 18 18 18 17 16 13 6 7 19 21 20 20 19 19 15 15 16 16 16 16 15 13 14 14 14 14 15 17
23 23 25 25 23 20 23 25 25 24 22 21 18 17 19 22 21 19 15 20 22 23 23 22 21 21 23 23 21 18 17 19 22 14 22 17 23 24 22 22 22 21 14 11 15 15 16 17 19 20 19 19 16 19 19 19 19 19 16 15 16 16 16 18 19 20 20 18 19 17 14 12 15 17 14 16 16 17 15 15 15 15 14 16 18
22 25 25 24 23 22 22 22 22 23 23 21 17 16 15 17 12 13 14 10 14 7 10 21 23 22 21 20 21 23 24 20 14 18 15 17 15 16 15 15 14 15 13 16 13 16 17 17 19 20 20 20 20 19 19 19 19 17 16 10 15 17 18 20 21 22 21 21 19 16 14 14 15 17 18 18 17 17 15 13 17 17 18 18 18
22 24 22 22 22 23 23 22 23 23 25 25 18 19 16 18 18 20 14 10 12 14 13 14 15 13 19 20 15 17 18 19 21 19 19 20 18 16 14 14 14 14 17 19 16 15 13 13 16 18 19 20 19 19 18 18 17 16 18 17 17 17 16 20 20 17 13 11 13 13 12 15 16 18 19 17 17 18 18 19 19 17 19 19 20
23 23 23 22 23 21 22 22 21 22 23 21 20 18 19 18 15 16 17 13 15 15 15 16 17 15 15 16 15 16 13 15 18 19 19 20 19 17 15 14 14 17 19 17 16 15 15 17 16 19 19 19 18 17 19 19 19 19 18 15 16 17 18 18 15 16 16 17 13 11 11 14 17 15 16 16 16 19 20 19 19 19 19 20 20
24 22 20 22 21 20 21 20 19 21 22 22 19 20 21 20 20 16 15 14 15 13 14 16 17 17 16 16 18 14 12 14 18 17 18 18 17 16 14 14 15 17 16 16 17 16 19 23 24 22 20 17 19 19 19 19 20 20 20 19 17 18 18 17 14 17 14 16 12 11 10 10 11 14 12 18 18 18 18 18 20 20 20 20 18
24 22 21 21 22 21 21 20 21 22 20 20 21 21 19 18 19 22 22 18 15 12 12 13 13 13 12 14 14 13 15 15 15 16 16 16 16 16 13 14 10 15 17 21 20 17 19 22 24 23 21 19 18 17 17 17 18 18 19 18 17 16 14 13 14 15 13 13 11 9 10 13 14 15 17 19 19 19 16 17 20 18 18 20 19
23 18 21 18 22 22 22 22 20 22 22 20 20 21 18 16 19 20 22 23 22 19 15 13 8 7 12 10 9 13 14 14 14 15 16 17 17 18 16 20 17 15 19 21 20 20 20 20 20 22 21 20 19 17 17 16 16 15 15 15 15 14 14 15 16 17 19 19 18 16 15 15 19 17 17 18 17 17 17 17 20 20 20 19 18
21 23 21 21 22 21 19 21 22 23 21 21 21 18 17 17 17 17 16 18 21 21 17 14 14 7 13 12 11 11 13 13 14 15 17 18 20 20 20 16 16 19 19 21 22 20 18 18 18 19 20 20 18 17 17 16 16 16 16 16 15 17 17 17 17 18 20 20 17 15 16 16 17 15 17 20 22 21 19 19 19 16 18 20 16
22 23 22 21 22 22 22 22 21 23 14 18 17 17 15 14 14 16 15 16 18 19 20 19 18 17 12 14 14 13 13 14 14 15 16 18 20 20 18 18 19 20 20 21 20 19 19 19 18 18 20 21 20 17 16 16 15 15 11 16 16 17 18 19 17 13 16 17 17 15 15 15 16 16 16 18 20 20 20 20 17 16 15 15 11
19 18 18 17 19 20 21 20 17 14 20 18 17 17 16 15 16 15 15 16 18 19 18 18 12 20 21 20 14 14 19 14 16 12 9 9 13 17 18 18 18 19 18 18 18 18 19 18 17 19 20 19 20 18 15 15 15 16 15 17 16 18 9 13 9 17 12 13 13 13 15 15 16 16 17 20 20 20 20 17 17 18 16 11 13
17 17 19 15 11 17 17 16 17 19 17 16 15 16 15 15 15 15 15 17 18 17 16 17 17 18 20 23 22 20 21 20 18 15 16 18 20 20 18 17 17 16 15 15 15 17 18 18 16 16 16 17 17 17 16 16 16 16 16 16 14 12 13 14 13 13 13 15 15 15 16 18 19 20 21 21 20 19 18 15 15 16 17 14 14
23 17 16 19 17 18 20 16 17 17 15 17 15 14 15 15 16 16 15 16 16 17 18 16 16 17 20 23 23 24 23 20 19 19 20 17 18 20 18 15 15 16 16 16 16 16 16 17 15 15 16 17 17 17 17 16 15 12 14 12 12 12 12 12 13 14 14 14 15 15 17 16 18 18 19 21 21 18 18 18 17 15 16 15 12
19 17 13 13 16 18 15 16 15 14 15 15 16 15 15 15 14 14 15 14 15 15 15 15 15 15 18 19 14 17 21 20 20 20 21 21 20 19 19 18 18 16 15 15 16 16 15 15 15 15 15 16 16 17 17 16 15 13 11 11 13 13 12 12 11 12 12 12 13 14 15 15 15 17 18 18 13 16 17 17 17 15 13 10 10
17 18 17 16 18 18 16 14 14 14 13 14 15 14 15 15 15 15 14 15 14 15 15 15 15 15 14 17 18 16 18 20 20 18 18 18 18 19 19 17 15 14 15 16 17 17 16 15 15 14 15 15 15 14 14 15 14 13 13 12 12 12 14 14 13 12 12 13 12 12 12 13 13 14 15 9 14 16 17 17 16 13 14 12 10
15 16 16 15 14 16 15 14 14 15 16 15 14 8 12 15 16 16 17 16 17 16 17 17 16 16 15 9 15 11 17 18 10 16 16 18 19 16 15 15 15 16 17 16 16 16 15 15 14 14 13 14 14 14 13 13 13 13 13 12 13 13 13 14 13 14 13 12 11 10 10 10 11 13 12 13 14 15 16 13 12 13 11 10 10
16 15 16 15 16 13 14 16 14 12 12 10 11 13 14 15 17 15 18 17 18 17 17 17 17 18 18 17 14 18 20 17 16 18 16 14 14 13 14 14 14 14 14 15 15 14 15 15 11 14 13 14 14 14 16 16 16 13 12 13 13 12 13 13 12 12 14 13 13 12 12 11 12 12 11 11 12 13 12 12 12 11 10 9 9
15 14 14 13 13 13 15 14 14 13 13 11 11 11 11 16 15 15 17 18 16 17 18 16 16 16 18 19 19 19 19 18 14 13 14 15 14 14 14 13 13 13 14 14 14 14 14 14 12 10 10 14 14 14 15 16 15 16 14 13 13 14 15 16 16 13 12 12 13 12 12 12 12 13 13 12 12 13 14 13 12 9 10 10 10
12 13 13 13 13 12 12 13 12 13 12 11 11 11 10 9 12 11 11 13 14 15 15 14 14 14 15 18 19 18 18 16 15 14 13 13 13 13 13 13 13 13 15 14 13 14 15 15 11 12 11 13 15 15 16 15 15 15 15 16 17 16 17 17 15 12 10 11 13 14 14 13 12 11 10 12 13 12 9 9 8 9 9 9 8
12 12 11 11 13 12 11 10 9 10 11 11 10 10 10 10 9 9 9 10 10 10 11 12 13 15 17 18 18 18 17 16 16 15 14 13 13 13 13 13 14 14 13 14 13 15 15 15 14 12 11 12 14 15 15 16 16 16 16 17 16 14 16 11 10 11 10 9 10 11 13 13 12 12 12 11 11 10 9 10 9 9 9 9 10
13 12 12 11 11 11 10 9 10 7 9 10 10 10 9 9 9 10 10 10 10 9 8 10 11 14 15 15 15 15 14 14 13 13 14 15 15 15 14 13 10 13 13 13 13 12 12 14 16 14 11 12 9 14 16 15 15 14 15 16 16 12 10 8 13 13 13 12 12 14 14 16 16 14 14 11 11 11 11 11 10 10 9 10 9
13 13 12 12 11 11 11 10 10 10 9 9 9 10 10 10 9 10 10 10 10 10 10 10 10 10 10 10 10 11 12 12 14 15 16 16 16 15 15 14 13 13 11 11 13 13 13 14 10 12 11 13 15 15 15 14 13 14 13 14 12 13 13 13 11 14 14 16 12 13 14 12 12 11 11 11 11 10 10 9 10 11 11 9 10
13 12 12 12 12 11 11 10 10 10 10 9 10 10 10 10 10 10 10 9 10 9 10 10 11 11 12 12 12 13 14 15 16 16 16 16 16 15 16 15 15 14 12 13 13 13 13 13 13 12 11 11 13 14 14 14 13 12 14 11 12 13 14 15 15 15 17 13 13 13 14 12 11 10 11 11 11 11 11 11 11 11 10 10 10
12 12 12 12 12 11 10 10 10 10 10 9 9 9 10 9 9 10 10 10 11 11 11 11 12 11 11 12 13 15 16 16 16 17 17 17 17 16 16 16 16 15 15 14 14 14 13 13 10 10 9 8 8 9 11 12 10 9 10 13 14 14 16 16 16 13 15 13 12 12 13 13 13 13 13 13 12 12 11 12 11 10 10 11 10
Wind_Speed
16 15 15 14 15 17 15 14 14 13 12 13 13 13 12 11 11 10 10 10 9 9 9 9 8 6 6 5 5 5 4 4 3 3 4 4 4 4 5 5 5 5 6 7 6 8 9 8 8 8 9 8 7 7 8 9 10 10 11 9 9 7 7 7 7 9 6 5 6 7 9 9 8 8 8 7 7 6 6 5 7 7 6 6 7
16 15 14 14 17 16 15 14 14 13 13 13 13 13 11 11 11 9 10 10 10 10 9 7 7 7 6 6 5 5 4 4 4 4 4 5 5 3 4 4 4 5 5 6 7 6 8 9 9 9 9 9 9 9 9 10 10 10 10 10 9 8 6 7 8 9 9 7 8 7 8 9 8 9 9 8 8 7 7 6 6 6 5 6 7
15 14 14 15 16 14 12 13 14 14 14 13 14 14 13 11 12 12 11 10 10 10 9 8 8 6 6 5 6 6 6 6 5 5 5 5 4 4 4 4 5 5 5 6 7 7 8 8 9 8 6 8 8 8 8 8 9 9 9 8 9 7 6 6 8 8 10 9 8 9 8 9 7 9 9 8 8 7 7 7 6 5 4 4 5
14 14 14 14 15 15 13 14 15 14 15 13 14 14 14 12 13 12 12 10 10 10 9 9 7 7 6 8 7 6 7 6 6 5 5 4 4 5 5 4 4 5 4 5 6 5 5 5 6 6 6 6 6 6 6 7 7 8 8 7 7 7 6 6 6 7 8 9 9 8 8 8 7 8 6 7 7 6 5 4 3 4 5 5 3
14 14 14 15 16 15 16 15 17 15 15 13 15 15 14 12 12 13 12 11 10 9 9 8 7 7 7 8 7 7 7 7 7 6 5 4 4 4 4 4 4 3 3 3 4 4 5 4 5 4 4 4 5 6 6 8 7 7 8 7 7 7 6 6 6 6 8 8 8 7 8 8 7 7 8 7 7 7 6 5 6 6 6 6 5
14 14 14 15 15 17 15 14 18 17 15 14 16 16 14 13 13 11 12 12 11 11 10 8 8 8 9 9 8 8 7 7 7 6 5 5 4 4 4 4 4 3 2 2 4 4 3 4 4 4 4 4 5 5 6 7 6 6 8 7 7 7 7 6 6 6 7 7 8 8 8 8 8 6 8 8 8 8 7 7 5 5 6 6 5
15 14 14 15 16 17 16 17 15 16 14 13 14 14 14 13 13 13 12 12 12 12 10 9 8 9 9 9 8 8 8 7 7 6 6 5 5 5 5 5 5 3 1 1 2 2 3 3 3 3 4 4 4 5 6 7 6 7 7 7 7 8 8 7 7 7 7 8 8 7 8 7 7 7 8 8 8 7 7 7 6 6 6 6 6
15 14 15 16 16 16 16 16 14 15 13 14 16 15 15 14 13 12 13 13 12 11 11 10 9 10 9 8 8 8 7 7 6 6 5 5 5 5 5 5 5 4 2 2 2 2 3 3 3 2 2 3 4 5 6 7 6 7 7 7 8 8 8 7 7 7 7 8 8 8 8 8 7 7 7 8 8 8 7 7 7 7 6 6 6
15 15 16 17 16 15 16 13 13 13 14 15 16 15 15 15 14 13 12 12 11 11 10 11 12 11 10 9 9 8 7 6 5 5 6 6 5 5 5 5 6 5 4 4 3 4 4 3 2 2 5 8 8 5 1 3 7 8 7 8 8 8 8 8 7 7 7 8 8 8 8 8 8 8 9 9 9 8 7 6 6 6 6 6 5
16 17 18 17 14 15 17 14 14 15 14 16 17 16 15 15 15 14 13 13 12 10 11 11 11 11 11 10 9 8 7 5 6 4 2 5 6 5 5 5 5 5 5 5 4 4 4 3 5 10 7 5 5 6 5 4 6 1 8 9 9 8 8 8 7 7 7 8 8 9 8 9 8 9 9 9 7 7 7 7 6 6 5 6 5
17 18 18 17 15 15 14 15 15 17 17 16 16 16 16 14 14 13 12 13 13 11 11 13 12 11 11 11 10 8 7 5 11 8 6 2 4 6 6 5 5 5 5 5 6 5 4 4 5 7 7 7 6 7 6 5 5 4 3 2 6 8 10 8 7 8 8 8 8 8 8 8 9 8 8 8 7 7 6 7 7 6 7 6 6
18 18 18 18 18 17 15 16 16 16 17 17 17 16 16 15 15 14 13 14 13 11 11 13 12 11 10 10 10 9 7 10 12 10 8 6 2 5 5 5 5 6 6 6 5 5 4 4 4 4 4 5 7 7 6 8 7 7 8 8 10 12 10 1 7 8 8 8 8 8 7 8 8 8 8 8 7 7 7 7 7 7 7 7 5
19 18 17 18 19 17 15 16 16 17 18 17 16 16 16 15 15 15 15 13 12 13 12 13 13 11 11 11 10 10 7 11 13 11 10 8 3 3 6 5 6 6 5 5 5 5 5 5 4 3 5 7 6 6 7 7 7 7 7 8 10 10 9 10 11 3 7 7 7 7 7 7 8 8 7 7 6 7 7 7 6 6 6 5 4
19 18 17 18 18 16 15 16 18 18 17 17 16 16 17 15 15 14 13 13 12 14 13 14 13 12 12 11 10 10 8 11 13 12 11 9 8 6 5 6 6 6 6 6 5 6 5 5 5 5 5 6 5 7 7 7 7 6 6 5 5 4 5 7 5 6 7 4 5 5 6 5 6 6 6 7 7 7 7 6 6 6 5 4 2
17 18 16 15 15 14 15 18 18 18 17 17 16 17 16 15 14 12 12 13 14 14 13 14 13 12 12 11 10 9 7 14 12 13 11 10 10 8 5 6 6 6 6 6 6 6 6 5 5 5 6 6 6 6 7 7 7 6 6 6 5 5 4 5 5 3 4 3 3 3 3 5 4 6 7 7 7 5 6 5 6 5 4 3 4
18 16 14 16 17 16 17 17 18 18 18 17 17 17 16 16 15 11 11 12 13 13 14 13 13 13 12 10 10 10 8 15 13 13 12 11 10 7 6 6 6 6 6 5 6 5 6 5 5 6 5 7 8 8 5 7 7 7 7 6 6 5 4 7 9 10 9 5 2 0 3 6 7 5 6 6 7 5 3 3 4 4 5 6 6
17 17 19 19 17 18 18 19 19 19 18 18 17 17 17 16 14 12 13 13 13 13 14 13 13 11 11 10 10 9 8 12 13 13 12 12 10 7 7 7 6 6 5 5 6 4 5 5 6 5 6 5 10 8 4 5 8 7 7 7 5 5 4 4 9 10 9 10 12 13 13 11 10 11 9 10 6 1 6 6 6 7 6 7 5
17 17 19 18 18 18 18 19 19 18 18 18 18 17 16 13 13 11 14 14 13 13 13 13 13 12 12 11 11 10 10 12 14 13 13 14 12 8 7 7 7 6 6 5 5 5 4 9 7 2 6 5 12 9 7 6 8 8 7 7 5 5 4 4 3 4 7 9 11 11 10 8 8 8 7 5 4 5 6 6 6 6 6 5 5
18 19 19 18 18 17 17 18 18 18 17 17 16 18 16 13 11 12 13 14 14 14 13 12 13 14 12 11 11 11 11 12 14 14 14 15 12 7 7 7 7 7 6 6 5 5 5 5 4 6 6 9 12 10 10 10 8 7 7 7 7 6 5 5 5 5 4 4 4 5 4 3 3 5 5 2 2 6 6 5 3 5 5 3 3
20 18 17 17 17 16 17 18 17 18 17 15 15 16 14 11 13 14 13 13 13 13 13 13 15 13 12 11 10 10 11 10 13 15 15 15 15 7 7 6 7 7 6 6 6 5 5 5 6 5 7 8 10 11 10 10 6 7 7 7 7 7 6 6 6 6 5 5 6 6 6 6 6 6 7 6 4 5 6 5 4 3 3 3 2
17 16 17 16 16 16 16 18 18 16 16 15 15 14 14 14 14 13 14 12 13 13 15 12 11 9 9 9 10 9 9 11 13 16 16 16 16 11 5 6 6 7 6 6 6 6 6 6 5 11 9 9 8 8 8 9 6 3 8 7 7 7 10 7 7 4 6 5 6 7 6 7 6 7 6 7 7 7 6 5 5 3 3 3 3
15 17 18 17 17 17 17 17 16 14 16 15 16 16 15 14 12 12 12 13 14 13 14 9 7 7 6 7 7 8 9 12 12 14 15 15 15 13 6 6 3 6 5 5 5 5 5 5 5 9 11 11 11 10 7 8 7 5 0 6 14 15 9 8 8 8 6 7 6 6 5 6 7 7 7 7 7 7 7 6 5 4 3 4 5
17 17 17 17 17 17 17 17 11 11 12 14 16 16 15 14 13 13 13 14 13 14 11 8 7 6 6 6 6 7 8 8 12 13 14 15 15 14 6 4 7 3 4 5 4 4 4 4 6 12 11 10 11 11 10 8 6 3 7 10 13 15 11 7 8 9 8 8 6 5 6 7 7 7 7 6 6 6 6 6 6 5 4 2 2
15 15 13 15 16 16 16 15 11 9 9 13 15 16 15 13 13 12 13 13 12 13 9 9 9 9 8 7 7 7 7 8 10 12 13 14 13 10 5 2 6 3 4 4 3 3 4 4 7 12 10 9 8 9 10 9 6 9 8 9 11 10 7 7 6 7 8 6 7 8 8 8 6 7 6 4 4 7 6 5 5 5 5 4 3
14 13 14 15 16 16 16 14 12 12 13 15 16 15 16 15 13 13 13 12 11 9 8 9 10 9 8 8 7 7 8 8 8 8 10 11 9 8 6 6 6 1 3 5 3 2 10 14 14 11 10 8 8 7 6 7 4 10 9 9 9 8 7 7 8 8 8 8 8 7 6 7 7 5 5 5 4 5 5 5 5 5 4 3 2
14 15 14 13 15 16 16 14 14 14 15 14 14 14 15 14 13 13 11 12 11 10 9 9 8 8 8 8 8 8 8 8 8 8 8 8 7 7 7 8 8 4 4 6 11 11 10 11 12 12 10 8 7 6 6 6 6 7 9 9 7 7 8 8 9 10 9 9 8 7 6 6 4 6 4 6 6 6 5 5 6 5 5 5 4
12 14 14 13 13 12 13 14 13 13 14 12 12 12 12 11 12 11 11 13 13 14 13 11 10 9 9 9 8 8 8 8 8 8 9 8 7 6 5 5 4 3 4 5 6 6 8 7 7 7 7 10 5 5 6 11 8 6 6 7 7 7 7 8 9 8 8 7 7 8 8 8 7 7 7 7 5 5 7 8 7 6 7 6 6
13 14 15 13 11 12 11 10 14 13 13 12 12 11 11 12 12 11 11 12 13 11 10 11 11 10 10 9 8 7 7 6 8 9 9 8 7 7 6 6 7 7 7 6 6 6 7 8 9 6 7 7 7 8 7 8 8 8 8 8 7 7 8 6 5 9 9 8 8 8 8 6 6 7 6 6 6 6 6 7 6 6 6 6 7
12 13 13 12 12 10 11 13 13 12 11 11 9 8 9 10 10 9 8 9 10 11 10 10 10 10 10 10 9 8 7 7 8 9 11 13 13 11 10 10 9 9 9 5 6 6 6 6 7 8 7 8 6 8 8 8 9 9 8 7 7 7 7 8 8 8 8 8 8 7 6 5 4 4 5 7 7 8 7 7 7 7 6 7 8
12 14 13 13 12 11 10 11 11 11 11 9 8 8 13 13 7 6 6 7 12 7 5 7 10 9 9 9 9 9 10 9 12 15 14 15 13 13 11 11 11 7 10 9 6 6 7 7 8 8 8 8 8 8 8 8 8 7 7 7 6 7 8 9 9 10 9 10 9 7 6 5 5 6 7 8 8 8 7 8 7 7 8 8 8
12 12 10 10 12 12 12 11 11 11 12 12 8 7 6 9 14 15 12 9 10 12 10 8 7 7 8 8 8 14 14 15 17 16 15 15 14 11 9 9 10 11 14 9 6 6 5 5 6 7 8 8 8 8 8 8 8 7 8 8 7 8 7 9 9 8 6 4 5 6 5 6 7 7 8 8 8 8 8 8 9 8 8 8 9
11 11 12 10 11 11 11 10 11 12 11 8 9 8 8 8 7 13 14 11 10 11 10 10 9 8 8 10 10 7 9 13 15 16 16 16 14 11 10 11 11 12 12 10 5 6 5 7 6 8 8 9 8 8 8 8 8 8 8 6 7 8 8 8 7 7 7 7 5 4 4 5 7 7 7 7 8 9 9 8 9 8 8 9 9
9 7 8 10 10 9 9 9 9 10 11 10 9 10 10 8 9 7 7 12 13 11 9 8 9 10 11 11 10 10 11 12 15 14 14 14 13 11 11 11 10 10 9 6 6 7 8 10 10 10 8 7 8 8 8 9 9 9 9 8 7 8 8 8 7 7 6 7 4 4 4 4 4 6 4 8 8 7 8 8 9 9 9 9 8
12 11 11 11 11 9 9 10 9 10 8 9 9 10 8 8 9 9 9 7 6 8 10 11 9 10 9 10 11 12 13 13 12 13 12 12 13 13 11 7 8 10 9 7 7 7 8 10 11 10 9 8 8 7 7 8 8 8 8 8 7 7 6 6 6 7 6 5 4 3 4 5 6 5 6 8 8 9 6 8 8 7 7 8 8
11 12 16 13 11 11 11 10 10 9 9 10 10 10 9 8 8 9 10 10 10 8 6 4 6 7 5 6 8 11 12 11 12 13 13 14 14 15 13 8 6 5 7 8 8 8 9 8 9 10 10 9 8 7 7 7 7 7 6 6 6 6 6 6 7 7 8 8 8 7 6 6 8 8 7 7 7 7 7 7 9 9 9 8 7
10 11 12 12 11 10 9 9 9 9 9 10 10 9 8 8 8 8 8 8 10 10 8 6 5 7 11 11 10 10 11 11 12 13 14 15 16 16 8 6 6 8 8 9 9 8 8 8 8 8 9 9 8 7 7 7 7 7 6 6 7 6 7 7 8 7 9 9 8 7 8 6 7 6 7 8 11 10 8 8 8 7 8 9 6
11 11 11 10 10 9 9 9 9 8 6 6 8 8 7 7 7 8 7 7 9 9 9 8 8 7 7 7 9 11 11 12 12 13 13 15 17 11 7 8 8 8 9 9 9 8 8 8 7 8 9 9 9 7 6 6 6 6 6 6 6 6 7 8 7 5 6 7 7 6 7 6 6 7 7 7 8 8 8 9 8 7 6 7 8
9 9 9 9 10 10 10 8 7 8 9 7 6 7 8 7 7 7 7 7 8 9 9 8 9 9 9 8 9 7 9 12 13 10 8 8 6 6 7 7 8 8 8 7 7 7 7 7 7 7 8 8 8 8 6 5 6 6 6 7 6 7 5 4 5 7 5 5 5 5 5 6 6 7 7 8 9 9 9 8 7 7 7 5 6
8 11 14 11 8 8 7 7 8 8 7 6 7 8 8 7 7 7 7 7 8 8 8 8 8 8 9 10 9 11 12 8 7 6 7 8 8 8 7 7 7 6 6 6 6 6 6 6 6 6 7 7 7 7 6 6 6 6 6 6 5 4 4 5 5 5 5 5 5 6 6 6 7 8 9 9 9 9 8 7 7 7 7 6 5
9 7 11 16 10 9 9 8 7 7 7 7 6 6 7 7 7 7 7 7 8 8 8 8 7 8 9 11 10 10 10 9 8 8 9 7 7 9 8 6 6 6 6 5 5 5 5 5 5 5 5 6 6 6 7 6 6 4 5 4 4 4 4 4 5 5 5 5 5 5 6 7 7 7 8 9 9 8 8 8 8 6 6 7 5
6 8 8 10 11 10 8 8 8 8 8 6 6 6 6 6 6 7 7 6 6 7 7 7 7 6 8 10 13 13 9 8 9 9 10 10 9 9 8 8 7 7 5 4 4 4 5 5 5 5 5 5 6 6 7 6 6 4 4 3 3 4 4 4 4 4 4 4 5 5 5 5 6 6 7 7 9 8 7 7 7 6 5 3 4
6 7 7 7 10 9 7 6 7 7 7 5 7 6 6 6 5 5 6 7 7 7 7 7 6 6 9 14 15 13 8 9 9 8 7 8 7 8 8 7 6 4 4 4 5 6 6 6 5 5 5 5 5 5 5 6 5 4 4 4 4 4 5 5 5 5 5 5 5 5 5 5 5 5 5 7 5 6 7 7 6 5 6 5 3
8 6 6 7 6 7 8 7 6 7 8 7 5 5 6 6 6 5 6 6 7 7 7 7 7 7 7 8 11 9 7 7 7 7 6 7 8 7 6 5 5 5 5 5 5 6 6 6 5 5 4 5 5 5 4 4 4 4 4 4 5 5 5 5 5 5 5 5 4 4 4 4 4 4 4 5 6 6 6 5 4 5 4 3 3
8 7 6 6 6 6 7 6 6 7 6 6 6 5 6 7 8 7 7 7 7 7 8 8 7 8 8 6 7 8 8 7 6 8 7 6 5 5 5 5 5 5 5 5 6 5 5 6 4 5 5 5 5 5 5 6 6 4 4 4 5 5 5 5 5 4 5 5 5 5 4 4 4 4 4 4 5 5 5 5 5 4 3 3 3
7 6 6 6 6 6 7 7 6 6 7 6 6 5 5 6 6 7 8 8 8 8 8 7 7 7 8 8 8 8 8 7 6 6 5 6 5 5 5 5 5 5 5 5 5 6 6 5 4 4 4 6 5 6 6 6 6 6 4 4 5 5 6 5 5 4 4 4 4 4 4 4 4 4 3 4 4 4 5 5 4 6 4 4 4
6 6 6 6 6 5 5 6 6 5 5 5 5 5 3 3 5 5 5 6 7 7 6 6 6 6 6 7 8 8 8 6 6 6 5 5 5 5 4 5 5 5 5 5 6 6 6 6 4 4 4 5 6 6 6 6 6 6 6 7 7 6 7 7 6 5 3 3 4 4 3 3 3 3 4 4 5 4 3 3 3 3 3 4 3
6 5 6 5 6 5 5 5 4 4 4 4 4 4 3 2 2 3 3 4 3 3 3 4 5 6 8 8 8 8 7 7 6 6 6 5 5 5 5 5 5 5 5 5 5 6 6 6 5 4 4 4 6 6 6 6 6 6 7 7 6 6 6 4 3 4 3 3 3 3 3 3 3 4 4 4 4 3 4 3 3 4 3 3 4
6 6 5 5 5 6 5 4 4 3 4 4 4 4 4 3 3 3 3 3 2 2 2 3 4 5 6 6 6 6 6 6 5 5 5 6 6 6 6 5 4 5 5 5 5 4 4 5 7 6 4 5 4 6 6 6 6 6 6 6 6 3 3 3 5 4 4 3 3 4 4 4 4 5 6 5 4 4 4 4 4 3 3 3 3
5 5 5 5 5 5 4 4 4 3 3 3 3 3 3 3 4 4 4 4 4 4 3 3 3 3 3 3 3 4 4 5 6 6 6 6 7 6 6 6 6 5 4 3 5 5 5 5 4 5 4 5 6 6 6 6 5 6 5 5 6 11 7 2 5 3 5 3 3 4 4 4 4 4 4 3 3 3 3 4 4 4 4 3 4
5 5 5 5 5 4 4 4 4 3 3 3 3 3 3 3 3 3 3 3 3 3 3 3 3 3 4 4 4 5 5 6 6 6 7 6 6 6 6 6 6 6 5 5 5 5 5 5 5 5 4 4 6 6 6 5 5 4 6 2 10 9 8 9 6 6 7 3 4 5 5 5 5 4 3 3 3 4 4 4 4 4 4 4 3
5 5 5 5 4 4 4 3 4 3 4 3 3 3 3 3 3 3 4 4 3 3 3 3 4 4 4 4 6 6 7 7 7 7 7 7 7 7 7 6 7 6 6 6 5 5 5 5 3 3 3 3 3 3 4 4 3 2 5 8 7 7 8 8 4 8 7 6 4 4 4 5 5 5 5 5 4 4 4 6 5 4 4 3 3
Wind_Direction
193 194 197 199 202 196 190 189 185 186 182 185 187 187 172 173 186 186 177 179 176 172 182 187 179 186 184 173 179 178 174 167 176 184 190 171 172 160 156 162 153 150 146 151 157 167 170 174 182 191 183 188 191 191 198 197 201 207 212 204 206 194 193 203 163 141 146 162 162 167 167 171 181 182 175 166 168 188 227 165 161 201 204 162 150
192 190 193 196 198 196 189 186 183 181 178 181 190 183 170 159 174 164 176 179 179 179 189 182 173 179 175 181 173 164 162 164 177 180 174 161 156 151 151 151 152 139 148 150 148 152 164 170 176 179 181 184 187 196 198 195 194 204 205 203 197 189 191 193 147 149 152 162 172 169 166 186 181 188 174 176 177 182 189 178 182 207 192 192 164
188 187 191 196 197 192 183 179 181 179 176 180 186 180 174 162 175 178 177 174 177 184 171 185 188 178 185 172 166 162 162 160 167 182 180 172 159 148 158 160 151 143 155 161 165 163 169 169 165 166 175 185 186 201 186 189 192 197 193 194 198 174 166 156 151 153 155 166 168 171 174 185 200 180 181 176 179 192 192 179 185 175 218 227 179
187 186 186 191 191 186 182 181 177 174 180 184 178 170 172 167 174 178 178 176 175 187 172 182 180 179 182 175 165 165 162 162 173 183 176 174 164 157 160 156 143 146 167 164 158 166 167 162 155 161 174 181 187 185 178 187 192 190 187 180 169 154 153 158 171 153 159 158 174 178 176 175 200 181 181 170 176 195 207 164 173 190 185 204 187
185 184 184 186 189 186 184 181 181 174 181 181 172 168 165 166 173 175 169 174 167 173 170 180 174 181 178 182 171 163 162 170 173 173 168 176 161 151 155 141 135 153 166 162 147 164 165 158 146 152 163 179 179 181 183 182 189 184 172 170 170 155 150 163 159 158 161 166 164 181 166 181 190 181 175 177 177 195 201 182 199 190 183 202 194
186 181 181 186 187 184 180 178 181 177 177 175 166 164 162 162 164 168 174 169 168 169 174 174 181 179 176 168 164 157 162 172 174 174 167 153 155 152 143 136 136 125 131 158 164 163 160 138 135 149 167 185 190 188 173 175 172 169 175 177 166 156 159 159 158 159 166 163 167 167 175 178 184 183 181 188 181 191 187 195 195 206 180 197 185
181 181 180 186 188 182 179 183 179 178 174 168 160 162 163 162 161 168 171 168 169 180 179 176 177 178 168 164 156 156 163 173 172 168 160 156 154 157 140 132 122 110 110 168 187 154 144 136 139 155 182 192 185 174 166 169 174 180 177 167 163 160 160 165 162 161 168 163 170 172 172 180 182 182 184 187 193 200 189 187 193 194 198 192 186
179 180 181 185 184 180 181 177 178 173 166 167 163 163 165 166 167 165 170 169 175 174 177 175 174 173 166 163 150 158 162 168 168 163 161 156 156 154 152 146 134 133 157 179 162 165 154 147 147 138 171 187 190 179 174 175 176 174 169 170 166 164 170 164 164 168 167 174 176 175 179 174 182 187 175 184 198 205 204 200 195 185 190 198 203
178 181 184 186 180 175 178 172 173 164 166 164 164 164 168 168 164 165 168 174 171 174 156 168 172 169 166 163 155 158 172 167 165 166 159 156 158 162 161 162 156 158 173 166 180 174 163 137 146 140 72 48 31 23 117 171 176 171 170 174 168 172 173 169 174 175 176 179 179 179 179 181 185 180 181 192 200 201 193 204 209 184 186 185 192
180 183 186 182 168 173 177 172 168 167 166 163 164 163 166 166 163 161 168 175 171 167 160 162 168 167 165 158 159 167 168 174 107 98 89 158 164 159 158 160 168 160 170 164 184 172 153 136 95 79 85 85 75 72 84 68 2 250 176 172 174 178 176 178 180 186 183 183 183 181 184 188 187 184 188 193 197 201 190 197 212 183 194 191 171
185 185 182 174 171 173 169 169 167 170 166 163 161 162 164 162 160 159 169 170 168 161 155 166 170 167 163 161 165 170 172 130 124 123 106 69 170 162 165 164 166 166 175 182 179 167 162 143 129 129 133 138 116 84 74 57 54 55 77 171 188 184 181 179 189 188 188 188 182 187 191 190 187 184 191 187 194 191 186 192 207 187 203 196 188
184 183 177 174 173 171 171 171 170 167 162 162 160 163 161 160 162 159 166 169 167 165 157 170 169 168 164 163 168 172 164 126 144 138 139 149 214 171 168 165 173 172 187 188 174 170 159 155 143 150 170 158 155 140 103 71 63 60 66 59 47 32 26 42 187 184 189 189 184 194 197 192 183 186 188 187 183 188 194 196 207 195 200 213 201
183 177 169 170 172 170 169 171 168 163 162 161 161 160 159 157 159 162 168 166 164 170 162 168 171 168 166 167 171 170 155 145 150 152 152 154 165 223 164 175 176 179 179 184 178 176 174 168 160 166 127 135 158 159 155 127 89 81 82 84 57 43 34 30 18 355 190 196 189 191 202 188 187 191 187 181 182 187 188 199 202 200 210 213 214
179 174 170 174 170 166 170 168 165 162 163 161 159 162 160 159 161 165 163 164 171 170 162 169 170 168 166 168 168 169 150 152 155 158 160 162 169 227 157 174 181 177 183 183 184 184 182 184 174 171 151 174 175 161 157 149 147 147 157 172 158 104 85 47 12 354 330 226 202 199 193 193 193 180 160 173 180 188 187 201 187 197 198 209 141
173 169 166 162 162 165 167 165 164 163 162 159 159 161 160 155 164 163 161 166 168 171 166 172 173 168 168 170 170 168 139 151 160 161 164 167 170 224 164 171 180 180 182 186 189 189 188 194 195 182 171 178 179 166 161 158 156 157 165 171 169 169 170 185 183 196 201 241 238 223 168 179 186 153 157 171 185 187 197 192 181 195 180 105 169
171 164 157 163 166 164 164 165 165 163 163 161 159 157 157 159 161 156 158 167 172 172 173 175 173 173 169 169 169 167 137 157 160 165 164 167 170 204 172 173 179 180 177 186 193 189 195 194 201 195 177 193 132 151 174 164 166 167 173 171 170 165 162 57 38 32 24 3 328 230 124 54 45 140 152 169 183 172 166 146 173 168 183 200 201
167 163 165 167 165 162 163 164 165 164 163 162 161 158 159 161 157 159 164 170 171 170 174 177 176 171 167 169 168 157 144 167 164 166 166 165 177 196 167 180 173 181 182 177 197 187 198 201 201 204 190 185 133 155 155 199 180 182 179 174 169 173 157 116 67 48 39 39 51 60 65 65 63 65 62 35 8 221 182 184 186 199 208 213 195
163 163 165 164 160 161 165 167 165 164 163 162 162 158 155 157 158 162 168 169 170 173 176 177 177 174 174 171 173 159 155 163 169 168 168 174 194 188 172 180 171 178 177 180 191 188 102 41 355 236 203 151 140 154 171 210 198 189 183 170 168 179 160 144 159 112 93 81 72 68 67 71 70 68 54 28 353 292 201 199 187 207 228 240 244
163 163 163 162 160 162 167 167 164 162 162 161 162 157 157 155 155 169 174 172 171 174 180 176 176 176 176 175 155 160 154 160 172 170 175 181 202 197 181 175 179 179 181 182 190 199 150 156 76 15 12 118 149 166 184 207 206 187 171 165 179 186 187 162 150 141 146 148 133 121 95 90 149 181 153 135 319 297 276 282 231 213 239 233 262
168 162 159 159 163 167 168 166 165 165 161 156 161 158 153 150 164 177 174 173 173 178 177 174 174 175 172 165 160 169 153 158 174 176 179 187 207 222 178 182 181 179 189 179 185 193 188 176 144 126 91 136 162 175 190 219 228 183 172 183 181 184 161 156 143 148 158 175 162 169 180 184 202 207 188 186 207 236 256 259 268 258 255 291 252
158 155 156 156 163 168 166 166 165 163 162 158 158 154 156 162 170 178 170 173 175 180 178 172 166 153 155 161 165 168 160 157 169 179 183 188 203 235 196 188 182 180 184 179 191 189 192 202 191 141 138 142 168 182 202 214 272 244 198 193 204 141 135 146 140 167 179 197 190 187 198 195 205 215 208 203 202 202 217 237 260 278 296 287 276
155 154 156 159 164 166 166 163 160 158 162 159 161 162 159 162 170 166 170 174 176 175 179 164 148 140 147 157 163 165 155 155 162 181 185 187 199 222 247 183 186 173 181 185 200 198 202 197 194 147 152 154 162 176 194 212 236 264 115 97 117 125 143 142 165 179 192 200 206 204 203 209 208 213 216 212 198 194 201 201 215 234 246 282 301
152 154 157 162 167 166 164 160 153 159 158 160 162 158 152 158 164 168 172 174 174 180 170 149 144 143 156 166 166 167 156 155 157 169 185 191 196 208 254 5 94 151 195 200 200 206 209 211 123 140 160 163 165 170 180 188 210 182 98 135 142 139 141 174 186 185 198 202 196 213 210 223 218 210 209 204 193 186 191 193 202 206 220 247 305
144 151 159 167 164 163 161 159 156 144 134 155 164 157 154 158 163 168 168 168 172 175 164 161 165 165 169 165 162 161 160 159 162 174 178 192 191 200 205 135 149 182 210 219 204 221 199 210 130 145 153 159 164 170 170 175 193 125 123 130 147 149 167 170 190 199 208 211 205 212 209 214 216 213 207 199 175 165 198 184 192 210 209 203 190
150 151 159 163 164 161 160 160 154 149 159 165 164 160 156 160 165 170 170 171 168 162 155 169 169 164 164 161 161 161 164 160 154 167 167 174 174 175 178 166 184 68 195 213 233 73 75 92 119 141 141 143 146 159 162 187 148 137 140 151 152 179 184 185 181 196 210 209 222 222 221 219 218 211 196 175 140 158 166 181 195 195 179 163 121
157 158 157 158 160 161 159 160 162 164 166 169 164 161 160 165 165 168 173 171 172 170 169 173 173 162 166 164 164 165 164 157 151 150 148 155 160 158 165 170 187 211 353 61 77 89 97 103 115 121 126 133 159 178 195 172 136 137 151 173 183 189 195 193 200 205 207 207 217 230 232 227 177 226 172 165 180 196 186 193 202 189 183 182 181
152 155 153 153 150 156 160 167 168 167 165 161 160 157 159 164 165 165 169 177 178 178 176 173 173 170 170 166 156 156 165 164 157 152 163 162 168 148 160 171 188 193 219 163 143 118 130 145 143 148 136 154 186 187 172 119 140 155 173 193 201 197 202 210 204 204 211 217 211 222 223 230 190 186 197 202 201 202 187 202 204 201 198 201 213
151 154 156 156 154 156 160 155 162 165 163 160 159 161 167 170 168 166 175 177 177 173 168 175 179 175 177 167 160 160 164 165 161 161 160 158 156 162 173 178 184 196 200 192 199 172 140 117 131 151 144 165 183 176 179 178 183 182 189 193 198 203 203 208 216 215 222 225 231 222 225 217 192 202 203 196 204 212 205 205 211 216 193 202 215
147 153 155 158 160 156 153 159 163 153 150 152 150 159 172 173 161 168 187 195 181 172 169 175 183 183 182 173 164 167 179 185 190 170 166 167 164 171 182 189 193 192 196 181 183 159 156 162 179 180 178 184 188 189 183 185 188 188 188 182 189 194 196 199 207 216 222 227 231 235 226 201 204 208 208 209 212 213 200 202 207 223 205 213 225
158 160 163 164 159 156 154 158 155 150 147 130 101 74 49 55 32 174 152 46 71 88 147 169 172 171 172 170 171 178 191 194 149 152 154 167 180 182 182 181 179 188 150 152 191 193 196 193 189 191 190 192 192 194 186 184 187 180 178 186 195 201 206 210 214 218 220 225 229 228 224 207 206 209 213 212 208 216 199 202 209 215 223 216 221
151 157 159 163 160 162 156 154 155 150 146 146 132 113 97 48 41 41 53 76 82 83 78 82 126 157 163 157 83 68 92 112 139 151 154 169 179 176 152 144 125 119 131 149 198 215 216 210 204 202 203 202 199 199 197 195 194 196 198 187 202 202 206 217 217 217 215 208 217 225 220 218 224 217 216 209 210 211 204 205 219 218 222 225 229
155 156 163 161 149 153 156 145 144 147 147 133 134 138 130 124 73 38 40 51 71 84 87 93 104 96 89 115 129 107 109 132 144 156 166 171 176 158 130 126 130 141 159 173 200 208 212 218 215 217 208 210 205 202 204 210 202 201 203 199 203 206 202 216 205 205 207 206 207 210 214 222 226 224 216 209 211 222 219 207 212 217 225 230 232
141 126 136 142 148 139 137 142 143 143 141 142 142 149 149 143 128 116 63 55 58 57 64 91 111 118 117 123 130 140 146 156 160 161 165 168 157 138 118 124 132 139 139 182 220 226 225 228 228 225 217 212 204 207 211 215 215 213 215 210 206 204 207 212 200 217 219 213 201 204 211 217 222 228 220 220 217 223 223 214 212 217 221 229 230
138 143 146 148 147 149 145 147 146 151 143 145 151 155 153 148 143 138 135 126 91 71 61 53 65 82 84 98 102 114 129 147 155 157 153 148 140 133 127 122 127 155 182 207 210 226 229 230 232 230 225 217 212 206 211 213 214 212 211 210 213 213 202 189 191 209 213 213 213 215 213 222 219 228 232 229 221 221 221 221 223 225 223 226 230
144 131 141 146 151 152 154 153 154 154 153 156 157 160 155 142 136 141 147 151 153 146 140 88 50 40 108 107 101 122 136 140 143 145 142 140 139 134 125 130 146 184 211 226 225 221 223 222 227 230 230 220 212 211 207 208 204 206 206 202 207 203 192 189 204 208 216 218 220 218 220 224 227 226 227 227 224 221 223 223 227 226 227 229 232
131 142 149 146 148 151 149 149 155 158 160 160 159 152 136 132 138 140 150 155 144 135 127 117 115 71 80 75 91 102 108 117 128 135 141 143 144 150 160 176 176 191 199 208 217 223 228 228 225 226 230 230 220 209 205 201 202 205 208 209 209 203 201 202 203 213 218 224 224 227 222 223 228 226 225 229 227 226 227 227 232 232 239 241 244
148 154 154 151 145 139 141 146 149 150 146 141 138 126 125 130 132 137 142 149 136 132 125 125 127 123 111 109 90 89 102 115 124 133 143 152 163 179 187 180 191 195 203 208 210 214 219 223 224 229 233 233 229 222 213 209 202 207 209 216 217 216 217 219 214 208 211 220 224 214 211 215 219 222 224 230 232 231 231 233 231 235 233 238 241
139 138 140 131 135 135 140 146 138 128 132 133 125 129 126 131 136 138 146 141 128 123 131 145 152 151 154 141 143 129 104 100 102 99 116 145 178 211 204 197 203 204 201 205 203 210 217 224 226 232 234 230 232 231 221 208 198 207 205 212 218 223 204 213 209 216 212 214 211 213 214 217 219 219 218 225 230 232 227 229 236 237 225 209 212
81 97 104 105 104 114 103 117 127 135 133 130 125 137 131 131 141 142 139 136 136 136 139 148 158 161 154 143 150 131 131 146 163 160 163 176 189 204 215 212 206 205 199 201 196 207 218 220 223 225 241 238 232 227 222 219 213 212 212 214 212 212 185 214 207 205 205 212 214 217 218 221 219 220 220 221 224 231 237 235 233 234 243 214 207
112 109 105 108 103 109 125 126 121 107 103 112 125 125 137 146 144 140 141 140 140 145 151 153 161 162 148 153 153 160 174 170 176 169 175 180 191 200 213 210 204 207 204 208 202 204 212 226 226 219 216 223 223 222 222 221 215 211 207 213 211 212 202 206 209 202 208 210 221 220 222 222 223 224 220 224 226 224 227 231 232 228 229 228 203
102 108 115 116 118 120 117 114 112 112 114 117 136 145 145 140 137 132 130 131 139 146 152 159 162 151 154 156 154 169 173 177 180 186 183 189 188 194 201 208 210 207 202 204 212 225 223 226 224 223 224 223 226 223 227 223 219 214 210 207 213 226 212 209 210 211 210 213 221 223 224 223 225 226 225 224 222 229 228 228 227 223 200 181 146
109 114 110 107 113 108 111 104 106 106 112 129 147 148 139 135 126 128 131 143 150 154 153 161 160 154 134 145 159 186 202 193 198 192 180 183 189 200 207 207 203 197 198 205 220 231 232 231 231 229 227 224 226 229 229 227 224 220 215 215 216 217 222 207 199 207 206 209 210 216 221 223 227 232 238 244 233 224 229 227 228 202 189 168 159
95 90 90 102 100 118 119 121 118 120 130 139 141 122 128 136 143 140 148 156 157 160 158 158 154 132 125 136 153 179 230 210 197 197 188 191 197 194 191 197 197 198 208 220 231 235 234 230 226 228 225 227 224 221 217 225 224 223 221 212 211 209 214 219 199 189 202 215 212 204 211 224 226 232 235 231 234 233 225 207 168 161 155 150 152
102 104 103 103 103 100 96 95 99 113 122 104 97 106 138 152 159 161 165 163 164 168 165 158 151 140 137 131 147 185 206 212 194 206 190 181 180 184 193 200 204 201 207 215 224 225 228 225 220 224 223 221 219 219 220 218 213 213 217 207 207 207 212 220 225 209 206 211 213 208 200 212 224 232 228 220 215 210 190 166 165 154 152 156 150
75 92 102 98 101 102 105 114 105 91 90 103 113 113 143 165 167 172 168 163 159 169 165 154 142 145 145 157 169 182 193 202 194 186 175 187 185 192 195 193 188 193 203 210 216 213 216 214 214 210 216 221 213 210 216 219 219 214 211 212 220 210 209 217 224 230 227 225 229 225 215 208 205 223 217 198 196 192 182 162 149 135 146 140 144
74 79 72 71 81 86 93 96 98 112 117 118 119 133 147 162 161 156 164 161 161 163 150 141 147 152 160 168 178 181 193 191 184 186 184 186 189 190 189 190 192 198 204 210 208 203 209 211 202 203 204 220 218 216 214 218 218 223 226 224 220 226 223 216 217 214 203 199 229 239 231 214 204 210 196 199 179 183 139 120 128 145 141 140 143
85 87 80 77 76 76 74 85 94 107 111 110 113 104 110 94 91 81 68 49 74 108 141 143 152 169 189 186 179 183 186 190 190 178 182 183 184 188 185 192 189 202 202 203 202 199 200 208 209 202 202 206 214 217 222 217 213 216 217 227 229 223 226 218 175 173 182 187 200 235 223 195 191 186 164 164 136 121 124 129 123 128 141 150 149
95 96 97 104 107 107 102 99 92 90 107 114 114 121 125 118 109 100 118 108 101 120 134 158 175 173 178 179 179 180 177 187 176 174 174 185 187 194 188 183 185 195 198 194 197 201 201 198 205 201 196 200 211 216 217 221 222 219 216 215 220 205 96 117 180 185 178 182 190 204 179 191 189 176 161 151 143 140 141 137 141 143 150 154 165
79 85 88 92 103 107 110 109 114 110 107 107 108 111 117 124 126 136 141 150 159 173 182 181 179 169 165 157 158 165 169 183 183 184 187 191 192 187 182 176 182 197 195 194 194 191 201 200 196 201 196 197 200 215 220 224 220 227 216 229 103 99 123 173 263 196 156 166 183 183 185 186 155 132 126 134 138 144 138 134 145 146 154 154 148
73 77 86 87 88 90 99 105 110 110 108 113 110 108 113 128 138 144 147 152 162 169 171 166 175 179 169 165 172 182 184 193 192 191 194 193 187 183 180 175 183 190 196 194 201 190 198 199 195 203 204 206 205 213 218 223 230 223 236 166 120 149 156 184 237 127 150 189 172 178 167 145 132 133 133 126 125 122 125 134 140 147 149 148 148
71 73 77 78 85 95 99 100 97 99 105 110 123 134 146 160 154 148 155 158 159 159 167 180 187 180 184 187 190 194 197 198 196 197 197 191 186 180 182 180 185 191 199 196 198 198 199 204 202 199 202 211 213 217 226 226 232 224 82 99 137 155 164 176 172 155 189 171 155 149 137 129 132 136 142 141 143 146 142 140 145 149 151 153 150